Вернуться в каталог

WILDFIRE 8

АктивенНаукаPO
NORAD 57768·PAYLOAD·🇺🇸 United States

Запущен Sep 2, 2023 с Vandenberg Space Force Base

Loading…

Ближайшие Пролёты (ближайшие 24 часа)

TLE

СвежийSource: Space-Track

Эпоха: Sep 14, 2026, 08:50 UTC

1 57768U 23133M   26257.36814000  .00000077  00000-0  57724-4 0  9992
2 57768  80.9919 281.2908 0006976 126.8818 233.2978 13.85454869153380

Отслеживайте WILDFIRE 8 в реальном времени с AllMySat

Download on the App Store